Home > Weather > Turku > Past weeks

Flag for Finland Past Weather in Turku, Finland — Yesterday and Last 2 Weeks

Now
66 °F

Sunny.


Feels Like: 66 °F
Forecast: 50 / 63 °F
Wind: 22 mph from West

Location: Turku Airport

Current Time: Aug 27, 2016 at 6:35:24 PM

Latest Report: Aug 27, 2016 at 6:20 PM


Visibility: 10 mi

Pressure: 29.83 "Hg

Humidity: 43%

Dew Point: 43 °F

Location of TurkuLocation

Past Weather in Turku — Graph

°F

Turku Temperature Yesterday

Maximum temperature yesterday: 66 °F (at 1:50 PM)
Minimum temperature yesterday: 61 °F (at 12:20 AM)
Average temperature yesterday: 63 °F

High & Low Weather Summary for the Past Weeks

 TemperatureHumidityPressure
High77 °F (Aug 21, 2:50 PM)100% (Aug 13, 7:50 AM)30.21 "Hg (Aug 13, 7:50 AM)
Low48 °F (Aug 14, 10:50 PM)42% (Aug 12, 5:20 PM)29.62 "Hg (Aug 13, 11:20 AM)
Average60 °F85%29.92 "Hg
* Reported Aug 12 5:20 PM — Aug 27 5:20 PM, Turku, Weather by CustomWeather, © 2016

Note: Actual official high and low records may vary slightly from our data, if they occured in-between our weather recording intervals... More about our weather records

Advertising

Turku Weather History for the Previous 24 Hours

Scroll right to see more
 ConditionsComfort  
Time TempWeatherWind HumidityBarometerVisibility
5:20 PM
Sat, Aug 27
66 °FPassing clouds.25 mph43%29.80 "HgN/A
4:50 PM68 °FPassing clouds.26 mph43%29.80 "HgN/A
4:20 PM68 °FPassing clouds.26 mph43%29.80 "HgN/A
3:50 PM66 °FPassing clouds.29 mph46%29.80 "HgN/A
3:20 PM66 °FScattered clouds.26 mph49%29.77 "HgN/A
2:50 PM66 °FPartly sunny.24 mph52%29.77 "HgN/A
2:20 PM66 °FPartly sunny.23 mph52%29.77 "HgN/A
1:50 PM66 °FPartly sunny.25 mph49%29.74 "HgN/A
1:20 PM66 °FPartly sunny.21 mph49%29.74 "HgN/A
12:50 PM66 °FPartly sunny.22 mph56%29.74 "HgN/A
12:20 PM64 °FPartly sunny.20 mph64%29.74 "HgN/A
11:50 AM64 °FBroken clouds.18 mph68%29.71 "HgN/A
11:20 AM64 °FPassing clouds.18 mph64%29.71 "HgN/A
10:50 AM64 °FPartly sunny.21 mph64%29.71 "HgN/A
10:20 AM64 °FScattered clouds.17 mph68%29.71 "HgN/A
9:50 AM63 °FScattered clouds.16 mph73%29.71 "HgN/A
9:20 AM63 °FScattered clouds.17 mph73%29.71 "HgN/A
8:50 AM63 °FPassing clouds.17 mph77%29.71 "HgN/A
8:20 AM63 °FPassing clouds.17 mph77%29.71 "HgN/A
7:50 AM63 °FSunny.14 mph77%29.71 "Hg10 mi
7:20 AM63 °FSunny.13 mph77%29.71 "Hg10 mi
6:50 AM61 °FClear.13 mph83%29.71 "Hg10 mi
6:20 AM61 °FClear.10 mph83%29.71 "Hg10 mi
5:50 AM61 °FClear.9 mph83%29.71 "Hg10 mi
5:20 AM63 °FClear.10 mph83%29.71 "Hg10 mi
4:50 AM63 °FClear.12 mph83%29.71 "Hg10 mi
4:20 AM63 °FClear.8 mph88%29.71 "Hg10 mi
3:50 AM63 °FPassing clouds.7 mph94%29.71 "HgN/A
3:20 AM63 °FPassing clouds.7 mph94%29.71 "HgN/A
2:50 AM63 °FPassing clouds.8 mph94%29.71 "HgN/A
2:20 AM63 °FPassing clouds.7 mph94%29.71 "HgN/A
1:50 AM63 °FPassing clouds.7 mph94%29.74 "HgN/A
1:20 AM63 °FPassing clouds.7 mph94%29.74 "HgN/A
12:50 AM63 °FPassing clouds.5 mph94%29.77 "HgN/A
12:20 AM63 °FPassing clouds.5 mph94%29.77 "HgN/A
11:50 PM
Fri, Aug 26
63 °FPassing clouds.6 mph94%29.80 "HgN/A
11:20 PM63 °FLow clouds.6 mph94%29.80 "HgN/A
10:50 PM63 °FPassing clouds.5 mph94%29.83 "HgN/A
10:20 PM63 °FPassing clouds.6 mph94%29.83 "HgN/A
9:50 PM63 °FLow clouds.7 mph94%29.86 "HgN/A
9:20 PM63 °FLow clouds.7 mph94%29.86 "HgN/A
8:50 PM64 °FLow clouds.8 mph88%29.89 "HgN/A
8:20 PM64 °FPartly sunny.7 mph88%29.89 "HgN/A
7:50 PM64 °FPartly sunny.5 mph88%29.89 "HgN/A
7:20 PM64 °FPartly sunny.5 mph88%29.92 "HgN/A
6:50 PM66 °FPartly sunny.6 mph83%29.92 "HgN/A
6:20 PM66 °FBroken clouds.6 mph83%29.95 "HgN/A
Weather by CustomWeather, © 2016

See weather overviewHow to use our weather pages